Weather History for Noatak, AK

Change the Weather History Date:

Thursday, May 23, 2013

  Actual Average Record
Temperature  
Mean Temperature 38 °F -  
Max Temperature 42 °F 45 °F 75 °F (2002)
Min Temperature 35 °F 29 °F 15 °F (2001)
Degree Days  
Heating Degree Days 26    
Moisture  
Dew Point 34 °F    
Average Humidity 84    
Maximum Humidity 93    
Minimum Humidity 70    
Precipitation  
Precipitation 0.00 in - - ()
Sea Level Pressure  
Sea Level Pressure 30.06 in    
Wind  
Wind Speed 5 mph (SSE)    
Max Wind Speed 16 mph    
Max Gust Speed 21 mph    
Visibility 9 miles    
Events      
Averages and records for this station are not official NWS values.
T = Trace of Precipitation, MM = Missing Value Source: NWS Daily Summary

Daily Weather History Graph

Daily Weather History Graph

Search for Another Location

Airport:

Trip Planner

Search our weather history database for the weather conditions in past years. The results will help you decide how hot, cold, wet, or windy it might be!

Date:

Astronomy

May. 23, 2013 Rise Set
Actual Time 3:58 AM AKDT 1:45 AM AKDT
Civil Twilight Sun does not rise Sun does not rise
Nautical Twilight Sun does not rise Sun does not rise
Astronomical Twilight Sun does not rise Sun does not rise
Moon 11:23 PM AKDT (5/23) 4:25 AM AKDT (5/23)
Length of Visible Light 24h 00m
Length of Day
21h 47m
Waxing Gibbous, 97% of the Moon is Illuminated
May 23
Waxing Gibbous
May 24
Full
May 31
Last Quarter
Jun 8
New
Jun 16
First Quarter

Hourly Weather History & Observations

Time (AKDT) Temp. Windchill Dew Point Humidity Pressure Visibility Wind Dir Wind Speed Gust Speed Precip Events Conditions
12:16 AM 39.2 °F 34.2 °F 37.4 °F 93% 30.01 in 10.0 mi NE 6.9 mph - N/A   Overcast
12:36 AM 37.4 °F - 35.6 °F 93% 30.01 in 5.0 mi Calm Calm - N/A   Overcast
12:56 AM 37.4 °F 34.9 °F 35.6 °F 93% 30.02 in 0.5 mi WSW 3.5 mph - N/A   Overcast
1:16 AM 37.4 °F - 35.6 °F 93% 30.02 in 2.5 mi Calm Calm - N/A   Overcast
1:36 AM 37.4 °F - 35.6 °F 93% 30.02 in 0.5 mi Calm Calm - N/A   Overcast
1:56 AM 37.4 °F - 35.6 °F 93% 30.02 in 4.0 mi Calm Calm - N/A   Overcast
2:16 AM 37.4 °F - 35.6 °F 93% 30.02 in 0.2 mi Calm Calm - N/A   Overcast
2:36 AM 37.4 °F 34.9 °F 35.6 °F 93% 30.02 in 0.5 mi NNE 3.5 mph - N/A   Overcast
2:56 AM 37.4 °F 33.8 °F 35.6 °F 93% 30.02 in 1.8 mi East 4.6 mph - N/A   Overcast
3:16 AM 37.4 °F - 35.6 °F 93% 30.03 in 9.0 mi Calm Calm - N/A   Overcast
3:36 AM 37.4 °F - 35.6 °F 93% 30.03 in 7.0 mi Calm Calm - N/A   Overcast
3:56 AM 37.4 °F - 35.6 °F 93% 30.03 in 10.0 mi Calm Calm - N/A   Overcast
4:16 AM 37.4 °F - 35.6 °F 93% 30.03 in 10.0 mi Calm Calm - N/A   Overcast
4:36 AM 35.6 °F - 33.8 °F 93% 30.03 in 10.0 mi Calm Calm - N/A   Overcast
4:56 AM 35.6 °F 32.8 °F 33.8 °F 93% 30.03 in 10.0 mi East 3.5 mph - N/A   Overcast
5:16 AM 35.6 °F - 33.8 °F 93% 30.03 in 9.0 mi Calm Calm - N/A   Overcast
5:36 AM 35.6 °F - 33.8 °F 93% 30.03 in 10.0 mi Calm Calm - N/A   Overcast
5:56 AM 37.4 °F - 35.6 °F 93% 30.04 in 10.0 mi Calm Calm - N/A   Overcast
6:16 AM 37.4 °F - 33.8 °F 87% 30.03 in 10.0 mi Calm Calm - N/A   Overcast
6:36 AM 35.6 °F - 33.8 °F 93% 30.03 in 10.0 mi Calm Calm - N/A   Overcast
6:56 AM 35.6 °F 32.8 °F 33.8 °F 93% 30.04 in 10.0 mi ENE 3.5 mph - N/A   Overcast
7:16 AM 35.6 °F 31.7 °F 33.8 °F 93% 30.04 in 10.0 mi East 4.6 mph - N/A   Overcast
7:36 AM 37.4 °F - 35.6 °F 93% 30.04 in 3.0 mi Calm Calm - N/A   Overcast
7:56 AM 37.4 °F - 35.6 °F 93% 30.04 in 10.0 mi Calm Calm - N/A   Overcast
8:16 AM 37.4 °F - 35.6 °F 93% 30.04 in 10.0 mi Calm Calm - N/A   Overcast
8:36 AM 37.4 °F - 35.6 °F 93% 30.04 in 10.0 mi Calm Calm - N/A   Overcast
8:56 AM 37.4 °F 34.9 °F 35.6 °F 93% 30.04 in 6.0 mi SSE 3.5 mph - N/A   Overcast
9:36 AM 39.2 °F 35.9 °F 35.6 °F 87% 30.04 in 10.0 mi SSE 4.6 mph - N/A   Overcast
9:56 AM 39.2 °F 33.0 °F 35.6 °F 87% 30.04 in 10.0 mi SSE 9.2 mph - N/A   Overcast
10:16 AM 41.0 °F 35.8 °F 35.6 °F 81% 30.04 in 10.0 mi SSE 8.1 mph - N/A   Unknown
10:36 AM 39.2 °F 34.2 °F 35.6 °F 87% 30.04 in 10.0 mi SSE 6.9 mph - N/A   Unknown
10:56 AM 41.0 °F 36.4 °F 35.6 °F 81% 30.04 in 10.0 mi SSE 6.9 mph - N/A   Unknown
11:16 AM 41.0 °F 35.2 °F 35.6 °F 81% 30.04 in 10.0 mi SSE 9.2 mph - N/A   Overcast
11:36 AM 41.0 °F 34.3 °F 35.6 °F 81% 30.04 in 10.0 mi South 11.5 mph - N/A   Overcast
11:56 AM 42.8 °F 38.0 °F 35.6 °F 76% 30.05 in 10.0 mi SSE 8.1 mph - N/A   Overcast
12:16 PM 42.8 °F 37.0 °F 35.6 °F 76% 30.05 in 10.0 mi SSE 10.4 mph - N/A   Overcast
12:36 PM 42.8 °F 37.0 °F 35.6 °F 76% 30.05 in 10.0 mi SSE 10.4 mph 18.4 mph N/A   Overcast
12:56 PM 42.8 °F 35.8 °F 35.6 °F 76% 30.04 in 10.0 mi SSE 13.8 mph 19.6 mph N/A   Scattered Clouds
1:16 PM 42.8 °F 36.2 °F 35.6 °F 76% 30.04 in 10.0 mi SE 12.7 mph - N/A   Mostly Cloudy
1:36 PM 42.8 °F 36.2 °F 35.6 °F 76% 30.05 in 10.0 mi SSE 12.7 mph - N/A   Overcast
1:56 PM 42.8 °F 35.4 °F 35.6 °F 76% 30.05 in 10.0 mi SE 15.0 mph - N/A   Overcast
2:16 PM 42.8 °F 37.0 °F 35.6 °F 76% 30.05 in 10.0 mi SE 10.4 mph 17.3 mph N/A   Overcast
2:36 PM 42.8 °F 37.0 °F 35.6 °F 76% 30.05 in 10.0 mi SSE 10.4 mph - N/A   Overcast
2:56 PM 42.8 °F 35.1 °F 35.6 °F 76% 30.05 in 10.0 mi SSE 16.1 mph 20.7 mph N/A   Overcast
3:16 PM 42.8 °F 35.1 °F 35.6 °F 76% 30.06 in 10.0 mi SSE 16.1 mph 20.7 mph N/A   Overcast
3:36 PM 42.8 °F 35.4 °F 35.6 °F 76% 30.06 in 10.0 mi SSE 15.0 mph - N/A   Overcast
3:56 PM 42.8 °F 35.1 °F 33.8 °F 70% 30.06 in 10.0 mi SSE 16.1 mph - N/A   Overcast
4:16 PM 41.0 °F 32.8 °F 33.8 °F 76% 30.07 in 10.0 mi SSE 16.1 mph 20.7 mph N/A   Overcast
4:36 PM 41.0 °F 33.9 °F 33.8 °F 76% 30.07 in 10.0 mi SSE 12.7 mph - N/A   Overcast
4:56 PM 39.2 °F 32.0 °F 33.8 °F 81% 30.07 in 10.0 mi SSE 11.5 mph 19.6 mph N/A   Overcast
5:16 PM 41.0 °F 33.1 °F 33.8 °F 76% 30.07 in 10.0 mi SSE 15.0 mph 18.4 mph N/A   Overcast
5:36 PM 39.2 °F 31.2 °F 33.8 °F 81% 30.07 in 10.0 mi SSE 13.8 mph - N/A   Overcast
5:56 PM 39.2 °F 31.2 °F 33.8 °F 81% 30.08 in 10.0 mi SSE 13.8 mph - N/A   Overcast
6:16 PM 39.2 °F 33.0 °F 33.8 °F 81% 30.08 in 10.0 mi South 9.2 mph - N/A   Overcast
6:36 PM 39.2 °F 32.0 °F 33.8 °F 81% 30.08 in 10.0 mi South 11.5 mph - N/A   Overcast
6:56 PM 39.2 °F 32.0 °F 33.8 °F 81% 30.09 in 10.0 mi South 11.5 mph - N/A   Overcast
7:16 PM 39.2 °F 33.0 °F 32.0 °F 75% 30.09 in 10.0 mi South 9.2 mph - N/A   Overcast
7:36 PM 39.2 °F 35.0 °F 33.8 °F 81% 30.09 in 10.0 mi SSW 5.8 mph - N/A   Overcast
7:56 PM 39.2 °F 33.6 °F 30.2 °F 70% 30.10 in 10.0 mi South 8.1 mph - N/A   Overcast
8:16 PM 37.4 °F 32.8 °F 30.2 °F 75% 30.11 in 10.0 mi SW 5.8 mph - N/A   Overcast
8:36 PM 35.6 °F 29.2 °F 30.2 °F 81% 30.11 in 10.0 mi SW 8.1 mph - N/A   Overcast
8:56 PM 37.4 °F 32.8 °F 30.2 °F 75% 30.11 in 10.0 mi SW 5.8 mph - N/A   Overcast
9:16 PM 35.6 °F - 28.4 °F 75% 30.12 in 10.0 mi Calm Calm - N/A   Overcast
9:36 PM 35.6 °F - 28.4 °F 75% 30.13 in 10.0 mi Calm Calm - N/A   Overcast
9:56 PM 35.6 °F 32.8 °F 28.4 °F 75% 30.13 in 10.0 mi South 3.5 mph - N/A   Overcast
10:16 PM 35.6 °F 32.8 °F 28.4 °F 75% 30.13 in 10.0 mi South 3.5 mph - N/A   Overcast
10:36 PM 35.6 °F 32.8 °F 28.4 °F 75% 30.14 in 10.0 mi South 3.5 mph - N/A   Overcast
10:56 PM 35.6 °F 30.7 °F 28.4 °F 75% 30.14 in 10.0 mi SSE 5.8 mph - N/A   Overcast
11:16 PM 35.6 °F - 30.2 °F 81% 30.15 in 10.0 mi Calm Calm - N/A   Overcast
11:36 PM 35.6 °F 32.8 °F 30.2 °F 81% 30.15 in 10.0 mi SSW 3.5 mph - N/A   Overcast
11:56 PM 35.6 °F 31.7 °F 30.2 °F 81% 30.16 in 10.0 mi SE 4.6 mph - N/A   Overcast